[[{"header":{"parameterUnit":"m.s-1","parameterCategory":2,"la1":30.2991,"la2":30.254,"lo1":-89.0895,"lo2":-89.0444,"dy":0.0017,"dx":0.0017,"nx":28,"ny":28,"refTime":"2026-01-29T03:00:00:Z","depth":"0","parameterNumber":2,"parameterNumberName":"U-component_of_CURRENTS"},"data":[0,0,0,0,0,0,0,0,0,0,0,0,0,0,0,0,0,0,0,0,0,0,0,0,0,0,0,0,0,0,0,0,0,0,0,0,0,0,0,0,0,0,0,0,0,0,0,0,0,0,0,0,0,0,0,0,0,0,0.383,0.3831,0,0.3838,0.3838,0.3838,0.3815,0.3815,0.3814,0.3814,0.3787,0.3787,0.3786,0,0,0,0,0,0,0,0,0,0,0,0,0,0.385,0.3849,0.383,0.3831,0.3831,0.3838,0.3838,0.3838,0.3815,0.3815,0.3814,0.3813,0.3787,0.3787,0.3786,0,0,0,0,0,0,0,0,0,0,0,0,0,0.3846,0.3849,0.383,0.3822,0.3821,0.3838,0.3838,0.3838,0.3815,0.3815,0.3814,0.3813,0.3787,0.3787,0.3786,0.38,0,0,0.3785,0.3785,0,0,0,0,0,0,0,0,0.3846,0.3845,0.3823,0.3822,0.3822,0.3827,0.3835,0.3824,0.3816,0.3816,0.3814,0.3813,0.3799,0.3797,0.3798,0.3799,0.3797,0.3785,0.3785,0.3785,0.3785,0,0,0,0,0,0,0,0.3846,0.3845,0.3831,0.3823,0.3823,0.3837,0.3834,0.3833,0.3809,0.3815,0.3814,0.3819,0.3798,0.3799,0.3797,0.3797,0.3785,0.3785,0.3785,0.3785,0.3858,0.386,0,0,0,0,0,0,0.3847,0.3845,0.3831,0.3832,0.3835,0.3837,0.3834,0.3824,0.381,0.3808,0.3819,0.3818,0.38,0.3798,0.3796,0.3847,0.3785,0.3785,0.3784,0.3855,0.3858,0.386,0,0,0,0,0,0,0.3848,0.3845,0.3831,0.3841,0.384,0.3837,0.3826,0.3825,0.3829,0.3814,0.381,0.3825,0.3799,0.3797,0.3813,0.3844,0.3784,0.3784,0.3853,0.3856,0.3859,0.3925,0,0,0,0,0,0,0.3848,0.3845,0.3841,0.3841,0.384,0.3845,0.3827,0.3826,0.3834,0.3831,0.3818,0.3814,0.3798,0.3814,0.3813,0.3843,0.3784,0.385,0.3854,0.3858,0.392,0.393,0.3939,0,0,0,0,0,0.3848,0.3841,0.384,0.3839,0.3832,0.3846,0.3847,0.3841,0.3835,0.3841,0.3842,0.3815,0.3839,0.3815,0.3813,0.3844,0.3848,0.3853,0.3858,0.3916,0.3928,0.3938,0,0,0,0,0,0,0.3844,0.3838,0.3837,0.3827,0.3841,0.3843,0.3848,0.3849,0.3855,0.3853,0.3836,0.3834,0.3864,0.3849,0.3823,0.388,0.3842,0.3847,0.3887,0.3898,0.3907,0.3905,0.3783,0,0,0,0,0,0.3843,0.3834,0.3843,0.3836,0.3845,0.3851,0.3857,0.3858,0.3863,0.3864,0.3858,0.3863,0.3884,0.3885,0.3894,0.3917,0.3936,0.394,0.3949,0.3957,0.3957,0.4043,0.406,0.3876,0.3876,0.3876,0,0,0.3837,0.3836,0.3828,0.3835,0.3844,0.3865,0.3852,0.3866,0.3885,0.3861,0.3882,0.3894,0.39,0.3933,0.3945,0.3921,0.4019,0.3963,0.3969,0.3965,0.405,0.4068,0.4084,0.3879,0.3879,0.3878,0,0,0.3831,0.3826,0.3824,0.3842,0.3863,0.3874,0.3883,0.3897,0.3904,0.3934,0.3932,0.3965,0.3977,0.3996,0.4006,0.4073,0.407,0.4077,0.4114,0.4198,0.4214,0.4228,0.4274,0.4291,0.4076,0.4076,0.4076,0,0.3829,0.3824,0.3829,0.3847,0.3864,0.3883,0.3903,0.3922,0.394,0.3966,0.3949,0.402,0.4012,0.4079,0.4094,0.4093,0.4129,0.4067,0.4211,0.4225,0.4238,0.4281,0.43,0.408,0.408,0.4079,0.4079,0,0.3827,0.3836,0.3842,0.3869,0.3892,0.3911,0.3946,0.3976,0.3995,0.4023,0.4092,0.41,0.4147,0.4153,0.4135,0.423,0.4221,0.4217,0.418,0.4261,0.4301,0.4319,0.4085,0.4084,0.4083,0.4082,0,0,0.3786,0.383,0.3833,0.3857,0.3905,0.3924,0.3978,0.4037,0.4094,0.4122,0.4202,0.4228,0.425,0.4263,0.4263,0.4314,0.4424,0.4299,0.4301,0.4338,0.4598,0.453,0.4542,0.4456,0.4459,0.4462,0.4587,0,0.3785,0.3815,0.3841,0.3886,0.391,0.3962,0.4016,0.4078,0.414,0.4227,0.4269,0.4341,0.429,0.4327,0.4375,0.4426,0.4476,0.4389,0.4518,0.4521,0.4447,0.4563,0.4375,0.4466,0.4605,0.4608,0.461,0,0.3767,0.3795,0.3828,0.3906,0.3924,0.3957,0.4064,0.4121,0.4254,0.4311,0.4401,0.4447,0.4532,0.4481,0.4603,0.4556,0.4577,0.4599,0.4605,0.4528,0.4487,0.441,0.4494,0.4351,0.4637,0.4635,0.4633,0,0.3721,0.3785,0.3809,0.3832,0.3925,0.3959,0.4017,0.414,0.4229,0.4378,0.4479,0.4573,0.4653,0.4706,0.4734,0.4694,0.4868,0.4826,0.478,0.4774,0.463,0.4605,0.4583,0.4917,0.4917,0.4917,0.4916,0,0.3699,0.3723,0.3789,0.3804,0.3869,0.3936,0.404,0.4124,0.4285,0.4416,0.4518,0.4635,0.4719,0.482,0.4813,0.4861,0.4941,0.481,0.482,0.4646,0.4623,0.4501,0.4439,0.4921,0.492,0.4919,0.4919,0,0.3648,0.3684,0.3729,0.3815,0.3845,0.3893,0.4051,0.4149,0.4296,0.448,0.454,0.473,0.485,0.4913,0.5014,0.4971,0.4872,0.4997,0.4765,0.4744,0.4532,0.4481,0.4376,0.4246,0.4975,0.4975,0.4974,0,0.3625,0.3636,0.3724,0.377,0.3807,0.3898,0.398,0.4131,0.4248,0.4522,0.4611,0.4799,0.4891,0.5022,0.4988,0.4996,0.4848,0.4826,0.4703,0.4516,0.4469,0.4326,0.4213,0.454,0.4536,0.4533,0.453,0,0.361,0.3634,0.3689,0.377,0.3841,0.3923,0.404,0.4121,0.4322,0.4451,0.462,0.4713,0.4866,0.4793,0.483,0.4807,0.4588,0.4757,0.464,0.4194,0.3963,0.3842,0.4442,0.45,0.4503,0.4505,0.4507,0.4508,0.3618,0.3652,0.3729,0.3789,0.3863,0.3914,0.3915,0.4046,0.4155,0.4265,0.447,0.4494,0.4579,0.4592,0.4558,0.4378,0.438,0.4218,0.4195,0.4086,0.3875,0.4394,0.4414,0.4417,0.4419,0.442,0.4422,0,0.3656,0.3692,0.3752,0.38,0.3808,0.3862,0.3932,0.3881,0.3886,0.4029,0.4089,0.41,0.4057,0.4097,0.4012,0.3838,0.3679,0.3717,0.3462,0.3397,0.393,0.3823,0.3621,0.3621,0.3621,0.3621,0.3621,0.3621,0.3695,0.374,0.3738,0.3718,0.372,0.3639,0.3608,0.3542,0.3563,0.3479,0.3437,0.3511,0.3682,0.3703,0.3522,0.3434,0.316,0.302,0.3024,0.3384,0.3428,0.3469,0.3352,0.3055,0.3055,0.2342,0.2336,0.2332]},{"header":{"parameterUnit":"m.s-1","parameterCategory":2,"la1":30.2991,"la2":30.254,"lo1":-89.0895,"lo2":-89.0444,"dy":0.0017,"dx":0.0017,"nx":28,"ny":28,"refTime":"2026-01-29T03:00:00:Z","depth":"0","parameterNumber":3,"parameterNumberName":"V-component_of_CURRENTS"},"data":[0,0,0,0,0,0,0,0,0,0,0,0,0,0,0,0,0,0,0,0,0,0,0,0,0,0,0,0,0,0,0,0,0,0,0,0,0,0,0,0,0,0,0,0,0,0,0,0,0,0,0,0,0,0,0,0,0,0,0.0099,0.0099,0,0.0059,0.0058,0.0058,0.0012,0.0012,0.0012,0.0011,-0.0046,-0.0047,-0.0048,0,0,0,0,0,0,0,0,0,0,0,0,0,0.0088,0.0088,0.0099,0.0099,0.0098,0.0059,0.0058,0.0057,0.0013,0.0012,0.0011,0.0011,-0.0046,-0.0047,-0.0048,0,0,0,0,0,0,0,0,0,0,0,0,0,0.0073,0.0089,0.0099,0.0073,0.007,0.0059,0.0058,0.0057,0.0013,0.0012,0.0011,0.0011,-0.0045,-0.0047,-0.0048,-0.0045,0,0,-0.0053,-0.0054,0,0,0,0,0,0,0,0,0.0074,0.0073,0.0077,0.0075,0.0072,0.0042,0.0033,0.0023,0.0013,0.0032,0.0011,0.001,-0.0016,-0.002,-0.0029,-0.0047,-0.005,-0.0054,-0.0055,-0.0055,-0.0056,0,0,0,0,0,0,0,0.0075,0.0074,0.0081,0.0077,0.0074,0.0047,0.0044,0.0031,0.001,0.003,0.0028,0.0027,-0.0018,-0.0027,-0.0031,-0.0051,-0.0053,-0.0055,-0.0056,-0.0057,-0.0066,-0.0066,0,0,0,0,0,0,0.0088,0.0076,0.0082,0.008,0.0074,0.0048,0.0045,0.005,0.0011,0.0005,0.0028,0.0025,-0.0024,-0.0029,-0.0033,-0.0009,-0.0055,-0.0057,-0.0058,-0.0067,-0.0066,-0.0065,0,0,0,0,0,0,0.0088,0.0089,0.0084,0.0078,0.0076,0.0049,0.0056,0.005,0.0042,0.0009,0.0002,0.0026,-0.0025,-0.0031,-0.0038,-0.0012,-0.0057,-0.0059,-0.0068,-0.0067,-0.0066,0.0026,0,0,0,0,0,0,0.0088,0.009,0.0095,0.0079,0.0077,0.0091,0.0056,0.005,0.0044,0.004,0.0006,-0.0001,-0.0026,-0.0035,-0.004,-0.0015,-0.006,-0.0069,-0.0067,-0.0066,0.0022,0.003,0.0037,0,0,0,0,0,0.0088,0.0109,0.0096,0.0096,0.0087,0.0092,0.0088,0.0065,0.0045,0.0052,0.0025,0.0001,-0.003,-0.0036,-0.0041,-0.0016,-0.0069,-0.0068,-0.0066,0.0019,0.0028,0.0037,0,0,0,0,0,0,0.0107,0.0106,0.0091,0.011,0.0105,0.0085,0.009,0.0071,0.0055,0.0047,0.0011,0.0004,0.0006,-0.002,-0.0025,-0.0017,-0.0054,-0.0053,0.0013,0.0021,0.0029,0.0051,-0.0062,0,0,0,0,0,0.0115,0.0128,0.012,0.0133,0.0134,0.0111,0.0107,0.0093,0.0078,0.0069,0.0046,0.0021,0.0009,0.0004,-0.0015,-0.0007,-0.0036,0.0004,0.0011,0.0018,0.0031,0.0006,0.0013,-0.006,-0.006,-0.006,0,0,0.0124,0.0126,0.0132,0.0137,0.0128,0.0152,0.0107,0.0111,0.0128,0.0066,0.0079,0.0045,0.0015,0.0022,0.0021,0.0006,0.0022,0.002,0.0026,0.0036,0.0009,0.0016,0.0022,-0.0059,-0.0059,-0.0059,0,0,0.0163,0.0154,0.0182,0.0187,0.0185,0.0178,0.0184,0.017,0.0161,0.0165,0.0126,0.0108,0.0091,0.0075,0.0065,0.0102,0.006,0.0096,0.0158,0.0134,0.014,0.0145,0.0115,0.0117,0.0104,0.0104,0.0104,0,0.0173,0.0211,0.019,0.0223,0.0237,0.0199,0.0238,0.0228,0.0213,0.0216,0.0182,0.0154,0.0118,0.0135,0.0143,0.0121,0.0098,0.0129,0.0145,0.0149,0.0153,0.0121,0.0122,0.0109,0.0108,0.0108,0.0107,0,0.024,0.0266,0.0286,0.0317,0.0328,0.0354,0.0346,0.0346,0.0324,0.0315,0.0314,0.0259,0.0243,0.0228,0.0196,0.0213,0.0186,0.0155,0.0126,0.0166,0.013,0.0129,0.0115,0.0114,0.0112,0.0111,0,0,0.0272,0.0324,0.033,0.0366,0.0381,0.0404,0.0429,0.0451,0.0482,0.0438,0.0471,0.0422,0.0381,0.0366,0.0318,0.0295,0.0287,0.0244,0.0241,0.0223,0.0235,0.0215,0.0211,0.0263,0.0263,0.0264,0.0199,0,0.0331,0.042,0.0424,0.0504,0.0551,0.0529,0.0568,0.0576,0.0568,0.0588,0.0521,0.0533,0.0439,0.0437,0.0394,0.0324,0.0289,0.0307,0.0193,0.0189,0.0173,0.0212,0.0237,0.0182,0.0198,0.0198,0.0198,0,0.0398,0.0453,0.0545,0.0615,0.0633,0.0669,0.0722,0.0755,0.0761,0.0753,0.0729,0.068,0.064,0.0553,0.0437,0.0455,0.0352,0.0283,0.0278,0.023,0.0168,0.0144,0.0179,0.0002,0.0196,0.0196,0.0196,0,0.045,0.0536,0.0616,0.064,0.0711,0.074,0.0776,0.0804,0.0862,0.0867,0.0906,0.0822,0.0807,0.0667,0.05,0.0475,0.0371,0.0314,0.0195,0.0191,0.0176,0.0171,0.0034,0.0228,0.0228,0.0228,0.0228,0,0.0521,0.0583,0.0647,0.0695,0.0799,0.0815,0.0923,0.0937,0.0996,0.1104,0.1003,0.1058,0.0837,0.0745,0.056,0.0385,0.0408,0.0219,0.0182,0.0207,0.0206,0.0019,-0.0097,0.0225,0.0226,0.0226,0.0227,0,0.0573,0.061,0.0713,0.0797,0.0829,0.0908,0.1031,0.1119,0.1152,0.1286,0.1301,0.1243,0.113,0.0896,0.0681,0.0489,0.0205,0.0231,0.0273,0.0242,-0.004,-0.0152,-0.0342,-0.0403,0.0095,0.0094,0.0094,0,0.0611,0.0668,0.0791,0.0866,0.0908,0.1026,0.1122,0.119,0.1302,0.1422,0.1503,0.1428,0.1417,0.1074,0.0719,0.0394,0.0198,0.0188,0.0137,-0.0039,-0.0191,-0.0276,-0.0319,0.0145,0.0145,0.0145,0.0145,0,0.069,0.0725,0.0815,0.0968,0.1077,0.1221,0.1361,0.1472,0.159,0.1714,0.1848,0.1849,0.153,0.1214,0.0745,0.0509,0.0071,0.0175,-0.0013,-0.0162,-0.0257,-0.0337,0.0158,0.0144,0.0144,0.0144,0.0144,0.0144,0.0747,0.0823,0.0937,0.1083,0.122,0.1399,0.1535,0.1709,0.1913,0.2118,0.2097,0.2149,0.1671,0.1044,0.0692,0.0068,0.0052,-0.0118,-0.0239,-0.0308,-0.0368,0.0125,0.0071,0.0071,0.0071,0.0071,0.007,0,0.0824,0.0911,0.1049,0.1227,0.139,0.1447,0.1689,0.1849,0.2112,0.2293,0.2411,0.2204,0.1634,0.1022,0.0172,-0.0262,-0.041,-0.0501,-0.0618,-0.0641,-0.0202,-0.0199,-0.0305,-0.0305,-0.0304,-0.0304,-0.0304,-0.0304,0.0867,0.1004,0.1073,0.1334,0.1467,0.1696,0.1841,0.2087,0.2266,0.2487,0.2521,0.2496,0.1985,0.0517,-0.045,-0.0656,-0.0951,-0.1037,-0.1172,-0.0888,-0.0861,-0.0835,-0.0859,-0.1101,-0.1102,-0.1527,-0.1532,-0.1535]}],[{"header":{"parameterUnit":"m.s-1","parameterCategory":2,"la1":30.2991,"la2":30.254,"lo1":-89.0895,"lo2":-89.0444,"dy":0.0017,"dx":0.0017,"nx":28,"ny":28,"refTime":"2026-01-29T03:00:00:Z","depth":"2","parameterNumber":2,"parameterNumberName":"U-component_of_CURRENTS"},"data":[0,0,0,0,0,0,0,0,0,0,0,0,0,0,0,0,0,0,0,0,0,0,0,0,0,0,0,0,0,0,0,0,0,0,0,0,0,0,0,0,0,0,0,0,0,0,0,0,0,0,0,0,0,0,0,0,0,0,0.3117,0.3118,0,0.3138,0.3138,0.3138,0.3134,0.3134,0.3134,0.3134,0.3132,0.3133,0.3133,0,0,0,0,0,0,0,0,0,0,0,0,0,0.3091,0.3092,0.3117,0.3118,0.3118,0.3138,0.3138,0.3138,0.3134,0.3134,0.3134,0.3133,0.3132,0.3133,0.3133,0,0,0,0,0,0,0,0,0,0,0,0,0,0.3104,0.3092,0.3117,0.312,0.3121,0.3138,0.3138,0.3138,0.3134,0.3134,0.3134,0.3133,0.3132,0.3133,0.3133,0.3139,0,0,0.3133,0.3133,0,0,0,0,0,0,0,0,0.3103,0.3105,0.3119,0.312,0.3121,0.3135,0.3129,0.3138,0.3134,0.3127,0.3134,0.3133,0.3133,0.3133,0.3135,0.3139,0.3139,0.3133,0.3134,0.3134,0.3134,0,0,0,0,0,0,0,0.3103,0.3104,0.3123,0.312,0.3121,0.3127,0.3128,0.3131,0.3129,0.3127,0.3128,0.3134,0.3133,0.3135,0.3135,0.3139,0.3133,0.3134,0.3134,0.3134,0.3212,0.3214,0,0,0,0,0,0,0.3104,0.3103,0.3122,0.3124,0.3114,0.3128,0.3129,0.3129,0.3129,0.313,0.3134,0.3134,0.3134,0.3134,0.3135,0.3193,0.3134,0.3134,0.3134,0.321,0.3213,0.3215,0,0,0,0,0,0,0.3103,0.3105,0.3122,0.3116,0.3119,0.3129,0.3129,0.313,0.3144,0.3135,0.3135,0.3149,0.3134,0.3134,0.3157,0.3191,0.3134,0.3134,0.3208,0.3211,0.3214,0.3278,0,0,0,0,0,0,0.3102,0.3105,0.311,0.3116,0.312,0.3141,0.3129,0.313,0.3149,0.3148,0.3148,0.3147,0.3134,0.3157,0.3157,0.319,0.3134,0.3206,0.3209,0.3213,0.3273,0.3282,0.329,0,0,0,0,0,0.3101,0.3106,0.311,0.3113,0.3125,0.3142,0.3144,0.3148,0.315,0.3159,0.3167,0.3147,0.3181,0.3159,0.3158,0.3192,0.3204,0.3208,0.3213,0.3269,0.3281,0.329,0,0,0,0,0,0,0.3095,0.3107,0.3111,0.3119,0.3135,0.3142,0.3154,0.316,0.3173,0.3177,0.3166,0.3166,0.3202,0.3191,0.3167,0.3229,0.3192,0.3197,0.3235,0.3246,0.3254,0.325,0.3134,0,0,0,0,0,0.3098,0.3105,0.3121,0.3128,0.3139,0.3151,0.3161,0.3168,0.3179,0.3185,0.3187,0.3198,0.3219,0.3226,0.3236,0.3264,0.3278,0.329,0.3299,0.3306,0.3305,0.338,0.3395,0.323,0.3229,0.3229,0,0,0.3096,0.3106,0.3109,0.3128,0.3141,0.3163,0.3156,0.3178,0.32,0.3183,0.3214,0.3227,0.3235,0.3271,0.3286,0.3265,0.3361,0.3311,0.3317,0.3312,0.3386,0.3402,0.3417,0.3233,0.3232,0.3232,0,0,0.3099,0.3109,0.3119,0.3139,0.3167,0.3179,0.3191,0.3212,0.3225,0.326,0.3261,0.3295,0.3315,0.3332,0.3343,0.3407,0.3406,0.3415,0.3452,0.3526,0.354,0.3553,0.3591,0.3606,0.3418,0.3418,0.3418,0,0.31,0.3112,0.3126,0.3148,0.3167,0.319,0.3213,0.3235,0.3261,0.3288,0.3278,0.3351,0.3348,0.3409,0.3426,0.3426,0.3458,0.3409,0.3538,0.3551,0.3562,0.3598,0.3614,0.3421,0.3421,0.3421,0.342,0,0.3109,0.3129,0.314,0.3174,0.3199,0.3222,0.3258,0.3291,0.3317,0.3347,0.3416,0.3427,0.3474,0.3482,0.3467,0.3554,0.3546,0.3542,0.3509,0.3583,0.3615,0.3631,0.3427,0.3425,0.3424,0.3423,0,0,0.3082,0.3135,0.3139,0.3161,0.3215,0.3232,0.3289,0.3347,0.3401,0.3439,0.3509,0.3544,0.3569,0.3583,0.3585,0.3631,0.373,0.3619,0.3622,0.3652,0.3882,0.3802,0.381,0.376,0.3763,0.3766,0.387,0,0.3085,0.3121,0.3153,0.3196,0.3218,0.3271,0.3324,0.3386,0.3446,0.3523,0.3568,0.3632,0.3605,0.3638,0.3688,0.3727,0.3775,0.37,0.3809,0.3811,0.3728,0.3828,0.3491,0.355,0.3885,0.3888,0.3889,0,0.3077,0.3106,0.3142,0.3211,0.3229,0.3265,0.3364,0.3419,0.3541,0.3595,0.3684,0.3723,0.3804,0.3766,0.3885,0.3846,0.3867,0.3883,0.3889,0.3799,0.3761,0.3532,0.3566,0.3915,0.3913,0.3911,0.391,0,0.3032,0.3095,0.3121,0.3143,0.323,0.3267,0.3326,0.3443,0.3514,0.3652,0.3728,0.383,0.3901,0.3956,0.3991,0.3958,0.4112,0.4076,0.4021,0.4014,0.3738,0.3702,0.416,0.416,0.4159,0.4159,0.4159,0,0.301,0.3032,0.3104,0.3118,0.3176,0.3247,0.3337,0.3422,0.3561,0.3657,0.3764,0.3854,0.3958,0.4049,0.4052,0.4096,0.4176,0.4045,0.405,0.375,0.3716,0.4033,0.4017,0.4163,0.4162,0.4161,0.4161,0,0.2955,0.2998,0.3036,0.3122,0.3153,0.3199,0.3334,0.3403,0.355,0.3683,0.3731,0.3916,0.4036,0.4111,0.4215,0.418,0.4214,0.4199,0.3824,0.3783,0.4044,0.4031,0.4156,0.4154,0.4153,0.4152,0.4151,0,0.2929,0.2941,0.3024,0.3049,0.3088,0.3169,0.3227,0.338,0.3458,0.37,0.3751,0.3936,0.4021,0.4162,0.4127,0.4141,0.4217,0.3838,0.3706,0.4058,0.4052,0.404,0.4028,0.3362,0.3355,0.3349,0.3344,0,0.2888,0.2917,0.295,0.2999,0.3048,0.3105,0.3198,0.325,0.3433,0.3544,0.3688,0.3783,0.3937,0.3815,0.3865,0.382,0.3807,0.3717,0.4213,0.3419,0.332,0.331,0.3323,0.329,0.3296,0.3299,0.3302,0.3305,0.2856,0.2865,0.2905,0.2936,0.2985,0.3001,0.2997,0.3097,0.3182,0.3296,0.3489,0.3517,0.3581,0.3482,0.3382,0.3299,0.3557,0.3379,0.3393,0.3414,0.3309,0.3213,0.3141,0.3146,0.3149,0.3153,0.3156,0,0.2805,0.2815,0.2837,0.2845,0.2825,0.2901,0.2938,0.2895,0.2904,0.3056,0.314,0.2918,0.2861,0.2917,0.27,0.2709,0.2641,0.2601,0.2468,0.2525,0.2575,0.2421,0.2021,0.2017,0.2014,0.2011,0,0,0.2781,0.2759,0.2749,0.267,0.2674,0.2594,0.2574,0.2539,0.2577,0.2555,0.2545,0.2773,0.2854,0.2407,0.235,0.2144,0.2317,0.2062,0.2978,0.2881,0.2926,0.3038,0.2869,0,0,0,0,0]},{"header":{"parameterUnit":"m.s-1","parameterCategory":2,"la1":30.2991,"la2":30.254,"lo1":-89.0895,"lo2":-89.0444,"dy":0.0017,"dx":0.0017,"nx":28,"ny":28,"refTime":"2026-01-29T03:00:00:Z","depth":"2","parameterNumber":3,"parameterNumberName":"V-component_of_CURRENTS"},"data":[0,0,0,0,0,0,0,0,0,0,0,0,0,0,0,0,0,0,0,0,0,0,0,0,0,0,0,0,0,0,0,0,0,0,0,0,0,0,0,0,0,0,0,0,0,0,0,0,0,0,0,0,0,0,0,0,0,0,0.0139,0.0139,0,0.01,0.0099,0.0099,0.0063,0.0063,0.0063,0.0062,0.0016,0.0016,0.0015,0,0,0,0,0,0,0,0,0,0,0,0,0,0.014,0.0141,0.0139,0.0139,0.0139,0.01,0.0099,0.0098,0.0063,0.0063,0.0063,0.0062,0.0017,0.0016,0.0015,0,0,0,0,0,0,0,0,0,0,0,0,0,0.0123,0.0141,0.0139,0.0118,0.0115,0.01,0.0099,0.0098,0.0063,0.0063,0.0062,0.0062,0.0017,0.0016,0.0014,0.0013,0,0,0.001,0.0009,0,0,0,0,0,0,0,0,0.0124,0.0123,0.0121,0.0119,0.0117,0.0087,0.0083,0.007,0.0063,0.0081,0.0062,0.0062,0.0041,0.0038,0.0029,0.0011,0.0009,0.001,0.0009,0.0008,0.0008,0,0,0,0,0,0,0,0.0125,0.0124,0.0122,0.0121,0.0118,0.0095,0.0092,0.008,0.0063,0.008,0.0078,0.0076,0.0039,0.003,0.0027,0.0009,0.001,0.0008,0.0008,0.0007,-0.0007,-0.0006,0,0,0,0,0,0,0.0136,0.0125,0.0123,0.0121,0.0121,0.0095,0.0092,0.0096,0.0063,0.0058,0.0076,0.0074,0.0033,0.0029,0.0026,0.0043,0.0008,0.0007,0.0006,-0.0007,-0.0007,-0.0006,0,0,0,0,0,0,0.0136,0.0137,0.0125,0.0123,0.012,0.0096,0.01,0.0095,0.0089,0.006,0.0055,0.0076,0.0032,0.0028,0.0021,0.004,0.0006,0.0005,-0.0008,-0.0007,-0.0006,0.0065,0,0,0,0,0,0,0.0137,0.0137,0.0141,0.0124,0.0121,0.0127,0.0101,0.0095,0.0089,0.0086,0.0058,0.0053,0.0032,0.0023,0.002,0.0038,0.0004,-0.0008,-0.0007,-0.0007,0.0062,0.0068,0.0073,0,0,0,0,0,0.0137,0.0152,0.0142,0.0141,0.0128,0.0128,0.0125,0.0104,0.009,0.0095,0.0073,0.0054,0.0027,0.0023,0.0018,0.0036,-0.0009,-0.0008,-0.0007,0.0059,0.0067,0.0073,0,0,0,0,0,0,0.0153,0.0149,0.0138,0.015,0.0143,0.0123,0.0125,0.0111,0.0096,0.0091,0.0061,0.0055,0.0054,0.0035,0.0031,0.0034,0.0006,0.0006,0.0057,0.0064,0.007,0.0089,0.0003,0,0,0,0,0,0.016,0.0169,0.0159,0.0167,0.0167,0.0146,0.0141,0.0129,0.0115,0.0108,0.0089,0.0068,0.0055,0.0052,0.0034,0.004,0.0012,0.0047,0.0053,0.0058,0.0069,0.0042,0.0046,-0.0002,-0.0002,-0.0002,0,0,0.0167,0.0166,0.017,0.0171,0.0162,0.0179,0.0142,0.0143,0.0157,0.0106,0.0116,0.0085,0.0059,0.0062,0.0061,0.005,0.0055,0.0059,0.0064,0.0073,0.0043,0.0048,0.0052,-0.0001,-0.0002,-0.0002,0,0,0.0197,0.0188,0.021,0.0212,0.0208,0.02,0.0206,0.0191,0.0183,0.0185,0.0151,0.0134,0.0118,0.0103,0.0094,0.0121,0.0082,0.0115,0.0165,0.0139,0.0143,0.0146,0.0112,0.0111,0.0122,0.0123,0.0123,0,0.0205,0.0235,0.0215,0.0241,0.0253,0.0218,0.0251,0.024,0.0225,0.0227,0.0199,0.017,0.014,0.015,0.0154,0.0135,0.011,0.0144,0.0147,0.015,0.0152,0.0116,0.0115,0.0126,0.0126,0.0125,0.0125,0,0.0258,0.0281,0.0295,0.032,0.0328,0.0349,0.0339,0.0337,0.0318,0.031,0.0304,0.0254,0.024,0.0224,0.0197,0.0203,0.0177,0.0154,0.0133,0.0161,0.0121,0.0119,0.0131,0.013,0.0129,0.0128,0,0,0.0284,0.0326,0.0331,0.0364,0.0374,0.0393,0.041,0.0426,0.0453,0.041,0.0435,0.0388,0.0354,0.034,0.0296,0.0269,0.0249,0.0224,0.0221,0.0197,0.0187,0.0157,0.0151,0.0228,0.0228,0.0228,0.0151,0,0.0333,0.0408,0.041,0.048,0.0521,0.0501,0.0531,0.0535,0.0527,0.0539,0.0474,0.0477,0.0402,0.0396,0.0355,0.0282,0.0247,0.0272,0.0158,0.0155,0.013,0.0149,0.0167,0.0101,0.0148,0.0148,0.0148,0,0.0388,0.0436,0.0516,0.058,0.0595,0.0626,0.0671,0.0698,0.0695,0.0686,0.066,0.0607,0.056,0.0488,0.0372,0.0393,0.0298,0.0228,0.0223,0.0172,0.0121,0.008,0.0093,0.0142,0.0143,0.0143,0.0144,0,0.0435,0.0509,0.0581,0.0603,0.0665,0.069,0.0722,0.0743,0.0791,0.0782,0.0804,0.0725,0.0702,0.0571,0.0409,0.0395,0.0275,0.0235,0.0116,0.0112,0.0094,0.0089,0.015,0.015,0.015,0.015,0.015,0,0.0497,0.0553,0.061,0.0653,0.0749,0.0761,0.0858,0.0869,0.0912,0.0993,0.089,0.0917,0.0723,0.0622,0.0454,0.0282,0.0305,0.0131,0.0096,0.0118,0.0116,0.0126,0.0125,0.0147,0.0148,0.0148,0.0149,0,0.0545,0.0578,0.067,0.0745,0.0776,0.0848,0.096,0.1036,0.1051,0.1145,0.1145,0.1072,0.0942,0.0728,0.0524,0.0361,0.0183,0.0111,0.0145,0.0115,0.0023,0.0026,-0.0024,-0.0026,-0.0027,-0.0028,-0.0029,0,0.058,0.063,0.0742,0.0812,0.0851,0.096,0.1047,0.1104,0.1197,0.1249,0.1304,0.1199,0.115,0.0826,0.0519,0.0221,0.018,0.0036,0.0006,0.0038,0.0008,0.0013,0.0017,0.0004,0.0003,0.0003,0.0003,0,0.065,0.0682,0.0765,0.0905,0.1007,0.114,0.1261,0.1351,0.1431,0.1496,0.1558,0.1514,0.1208,0.091,0.0491,0.0286,0.0082,0.0017,0.0051,0.0048,0.0059,0.0031,0.0036,-0.0002,-0.0001,-0.0001,-0.0001,-0.0001,0.0702,0.0772,0.0876,0.1012,0.1137,0.1295,0.1411,0.154,0.1685,0.1784,0.1741,0.1674,0.1333,0.0796,0.0435,0.0048,0.0072,-0.0071,-0.0067,-0.0063,-0.0043,-0.0035,-0.011,-0.011,-0.011,-0.011,-0.0111,0,0.0777,0.0855,0.0978,0.114,0.1282,0.134,0.1542,0.1653,0.1821,0.1894,0.193,0.1591,0.1246,0.084,0.0271,-0.0059,-0.0083,-0.0172,-0.0127,-0.012,-0.0115,-0.0097,-0.0179,-0.018,-0.0181,-0.0182,0,0,0.0818,0.0942,0.1001,0.1228,0.1348,0.154,0.1658,0.1812,0.1903,0.1974,0.193,0.1848,0.1355,0.0933,0.0479,0.0147,0.009,0.0079,0.017,0.0284,0.0293,-0.0021,0.0019,0,0,0,0,0]}],[{"header":{"parameterUnit":"m.s-1","parameterCategory":2,"la1":30.2991,"la2":30.254,"lo1":-89.0895,"lo2":-89.0444,"dy":0.0017,"dx":0.0017,"nx":28,"ny":28,"refTime":"2026-01-29T03:00:00:Z","depth":"4","parameterNumber":2,"parameterNumberName":"U-component_of_CURRENTS"},"data":[0,0,0,0,0,0,0,0,0,0,0,0,0,0,0,0,0,0,0,0,0,0,0,0,0,0,0,0,0,0,0,0,0,0,0,0,0,0,0,0,0,0,0,0,0,0,0,0,0,0,0,0,0,0,0,0,0,0,0.2039,0.204,0,0.2108,0.2109,0.2109,0.2171,0.2172,0.2173,0.2174,0.2257,0.2258,0.226,0,0,0,0,0,0,0,0,0,0,0,0,0,0.195,0.1951,0.2039,0.204,0.2041,0.2108,0.2109,0.2109,0.2171,0.2172,0.2173,0.2174,0.2256,0.2258,0.226,0,0,0,0,0,0,0,0,0,0,0,0,0,0.1999,0.1951,0.2039,0.2081,0.2086,0.2108,0.2109,0.211,0.2171,0.2172,0.2173,0.2175,0.2256,0.2258,0.226,0.2245,0,0,0.2266,0.2267,0,0,0,0,0,0,0,0,0.1996,0.2002,0.2074,0.2079,0.2084,0.2134,0.2108,0.2156,0.217,0.2136,0.2174,0.2175,0.2218,0.2223,0.223,0.2249,0.2252,0.2266,0.2268,0.2268,0.2269,0,0,0,0,0,0,0,0.1992,0.1999,0.2064,0.2075,0.2081,0.2094,0.2102,0.2117,0.2167,0.2139,0.2145,0.2155,0.222,0.2227,0.2232,0.2254,0.2266,0.2268,0.2269,0.227,0.2398,0.2401,0,0,0,0,0,0,0.1987,0.1996,0.2062,0.2067,0.2045,0.2094,0.2103,0.2115,0.2167,0.2176,0.2154,0.2158,0.2223,0.223,0.2235,0.234,0.2268,0.227,0.2271,0.2396,0.2399,0.2401,0,0,0,0,0,0,0.1985,0.1992,0.2059,0.2034,0.2044,0.2095,0.2107,0.2116,0.2168,0.2178,0.2188,0.2203,0.2225,0.2232,0.2292,0.2339,0.2271,0.2273,0.2394,0.2397,0.24,0.2473,0,0,0,0,0,0,0.1982,0.1991,0.2019,0.2034,0.2045,0.2099,0.2106,0.2116,0.2171,0.2178,0.2222,0.2229,0.2226,0.2289,0.2294,0.2341,0.2275,0.2391,0.2395,0.2399,0.2468,0.2479,0.2488,0,0,0,0,0,0.1979,0.2002,0.202,0.203,0.2075,0.21,0.2108,0.2146,0.2172,0.2199,0.2237,0.223,0.2319,0.2292,0.2297,0.2346,0.2389,0.2394,0.2399,0.2464,0.2477,0.2488,0,0,0,0,0,0,0.1979,0.2011,0.2031,0.2066,0.2096,0.2112,0.2148,0.2171,0.2221,0.2244,0.2253,0.2262,0.2333,0.233,0.23,0.2397,0.2355,0.2361,0.2402,0.2415,0.2424,0.2417,0.2276,0,0,0,0,0,0.1991,0.2022,0.2047,0.2081,0.21,0.2134,0.2159,0.2185,0.2219,0.2245,0.2276,0.2314,0.2348,0.2375,0.24,0.2449,0.2454,0.2486,0.2496,0.2504,0.2504,0.2568,0.2583,0.2418,0.2417,0.2417,0,0,0.2002,0.2025,0.2045,0.2085,0.2115,0.2147,0.2154,0.2204,0.2242,0.2244,0.2323,0.2351,0.237,0.2429,0.2461,0.2439,0.2555,0.251,0.2517,0.2512,0.2575,0.2591,0.2605,0.2421,0.242,0.242,0,0,0.2021,0.2061,0.209,0.2118,0.217,0.2188,0.2213,0.2257,0.2296,0.2361,0.2378,0.2436,0.249,0.2511,0.2527,0.2605,0.2605,0.2625,0.267,0.2734,0.2748,0.276,0.2787,0.2801,0.263,0.263,0.263,0,0.2038,0.2071,0.2103,0.2135,0.2167,0.2212,0.2247,0.2286,0.2349,0.2389,0.2402,0.251,0.2525,0.2594,0.2622,0.2627,0.2655,0.2622,0.2746,0.2758,0.277,0.2794,0.2809,0.2634,0.2634,0.2634,0.2633,0,0.206,0.2107,0.2129,0.2185,0.2222,0.2263,0.2312,0.2371,0.2429,0.2469,0.257,0.26,0.2666,0.2683,0.2675,0.2768,0.2758,0.2751,0.2713,0.2791,0.2812,0.2826,0.264,0.2639,0.2638,0.2637,0,0,0.2043,0.2128,0.2142,0.2177,0.2254,0.228,0.236,0.2433,0.2501,0.2577,0.2662,0.2727,0.2765,0.2785,0.2798,0.2843,0.294,0.2837,0.2838,0.2857,0.3072,0.2861,0.2856,0.2969,0.2972,0.2974,0.3053,0,0.2056,0.2117,0.2161,0.2233,0.2266,0.2338,0.2405,0.2486,0.2565,0.2659,0.2721,0.2807,0.2799,0.2848,0.2898,0.2936,0.2981,0.2918,0.2998,0.2999,0.2799,0.2866,0.2983,0.3063,0.3066,0.3069,0.307,0,0.2052,0.2097,0.2165,0.2259,0.2284,0.2342,0.2463,0.2532,0.2666,0.2735,0.284,0.2892,0.2986,0.2962,0.3077,0.3046,0.3067,0.3081,0.3085,0.2868,0.2814,0.2971,0.3095,0.3093,0.3091,0.3089,0.3088,0,0.1998,0.2095,0.2152,0.2183,0.2298,0.2361,0.2437,0.2567,0.2642,0.2799,0.2874,0.2992,0.3071,0.3129,0.3168,0.3146,0.3271,0.3243,0.307,0.3055,0.3188,0.3174,0.3319,0.3319,0.3319,0.3318,0.3318,0,0.1964,0.2015,0.2141,0.2169,0.2256,0.2349,0.2461,0.2558,0.2704,0.2788,0.2919,0.2991,0.3124,0.3202,0.3214,0.318,0.3322,0.3078,0.3065,0.3216,0.3205,0.3197,0.3182,0.3321,0.3321,0.332,0.332,0,0.1888,0.1971,0.2044,0.2181,0.2232,0.2299,0.2465,0.2532,0.2695,0.2809,0.2866,0.3038,0.3129,0.3216,0.3312,0.322,0.3216,0.3169,0.3323,0.3317,0.2943,0.2932,0.297,0.2964,0.2958,0.2953,0.2949,0,0.1848,0.1881,0.2036,0.2081,0.2152,0.2269,0.2338,0.2513,0.2578,0.2799,0.2827,0.2992,0.3075,0.3044,0.3154,0.3163,0.3124,0.3095,0.3003,0.2926,0.2911,0.2908,0.2904,0.294,0.2939,0.2937,0.2936,0,0.177,0.1849,0.1907,0.2001,0.2085,0.2159,0.2273,0.2307,0.2491,0.2665,0.2717,0.276,0.2856,0.2913,0.2948,0.2947,0.3095,0.3035,0.3045,0.2959,0.2891,0.288,0.2883,0.2916,0.2919,0.2921,0.2922,0,0.1719,0.1739,0.1826,0.1891,0.1984,0.2004,0.2089,0.2151,0.2241,0.2472,0.2488,0.2657,0.2826,0.2803,0.2836,0.2819,0.2764,0.2654,0.2683,0.2706,0.258,0.2452,0.2334,0,0,0,0,0,0.1651,0.165,0.1701,0.1749,0.1831,0.1886,0.2014,0.2098,0.2279,0.2246,0.2357,0.2425,0.2472,0.2571,0.2498,0.2717,0.2777,0.2619,0.2666,0.2807,0.283,0.2705,0,0,0,0,0,0,0.1598,0.1643,0.1649,0.1613,0.1621,0.1687,0.1763,0.1887,0.1878,0.2077,0.2121,0.2267,0.2361,0.2489,0.2451,0.2477,0.2451,0.2731,0.2724,0.2794,0.2815,0.2833,0.2712,0,0,0,0,0]},{"header":{"parameterUnit":"m.s-1","parameterCategory":2,"la1":30.2991,"la2":30.254,"lo1":-89.0895,"lo2":-89.0444,"dy":0.0017,"dx":0.0017,"nx":28,"ny":28,"refTime":"2026-01-29T03:00:00:Z","depth":"4","parameterNumber":3,"parameterNumberName":"V-component_of_CURRENTS"},"data":[0,0,0,0,0,0,0,0,0,0,0,0,0,0,0,0,0,0,0,0,0,0,0,0,0,0,0,0,0,0,0,0,0,0,0,0,0,0,0,0,0,0,0,0,0,0,0,0,0,0,0,0,0,0,0,0,0,0,0.0115,0.0115,0,0.0088,0.0087,0.0087,0.0067,0.0067,0.0067,0.0067,0.0036,0.0035,0.0034,0,0,0,0,0,0,0,0,0,0,0,0,0,0.0119,0.0119,0.0115,0.0115,0.0115,0.0088,0.0087,0.0087,0.0067,0.0067,0.0067,0.0067,0.0036,0.0035,0.0034,0,0,0,0,0,0,0,0,0,0,0,0,0,0.0106,0.0119,0.0115,0.0102,0.0101,0.0088,0.0087,0.0087,0.0067,0.0067,0.0067,0.0067,0.0036,0.0035,0.0034,0.003,0,0,0.0031,0.003,0,0,0,0,0,0,0,0,0.0107,0.0106,0.0104,0.0103,0.0102,0.0081,0.0077,0.0068,0.0067,0.0079,0.0067,0.0066,0.0051,0.0049,0.0043,0.0028,0.0027,0.003,0.003,0.0029,0.0029,0,0,0,0,0,0,0,0.0108,0.0107,0.0103,0.0104,0.0102,0.0087,0.0085,0.0075,0.0065,0.0078,0.0077,0.0075,0.005,0.0044,0.0042,0.0027,0.0031,0.003,0.0029,0.0028,0.0013,0.0013,0,0,0,0,0,0,0.0115,0.0108,0.0104,0.0103,0.0105,0.0087,0.0085,0.0087,0.0066,0.0062,0.0075,0.0074,0.0046,0.0043,0.0041,0.0053,0.0029,0.0028,0.0028,0.0013,0.0013,0.0013,0,0,0,0,0,0,0.0115,0.0115,0.0105,0.0105,0.0103,0.0088,0.009,0.0087,0.0084,0.0064,0.006,0.0076,0.0046,0.0042,0.0038,0.0051,0.0028,0.0027,0.0012,0.0013,0.0013,0.0066,0,0,0,0,0,0,0.0115,0.0115,0.0119,0.0106,0.0103,0.0107,0.009,0.0086,0.0084,0.0082,0.0064,0.006,0.0045,0.004,0.0037,0.0049,0.0026,0.0012,0.0012,0.0013,0.0064,0.0068,0.0071,0,0,0,0,0,0.0116,0.0125,0.0119,0.0119,0.0109,0.0107,0.0105,0.0092,0.0084,0.0088,0.0074,0.0061,0.0041,0.0039,0.0036,0.0048,0.0012,0.0012,0.0013,0.0062,0.0067,0.0071,0,0,0,0,0,0,0.0127,0.0124,0.0117,0.0124,0.0119,0.0104,0.0106,0.0097,0.0088,0.0086,0.0066,0.0062,0.0061,0.0046,0.0045,0.0043,0.0024,0.0023,0.0062,0.0067,0.007,0.0086,0.0025,0,0,0,0,0,0.0132,0.0139,0.013,0.0136,0.0135,0.0121,0.0118,0.0111,0.0101,0.0097,0.0084,0.007,0.006,0.0057,0.0044,0.0046,0.0023,0.005,0.0054,0.0057,0.0067,0.0042,0.0044,0.0015,0.0015,0.0015,0,0,0.0137,0.0136,0.0139,0.0139,0.0132,0.0145,0.0119,0.012,0.0131,0.0095,0.0104,0.0082,0.0062,0.0063,0.0062,0.0054,0.0051,0.0058,0.0061,0.0069,0.0042,0.0045,0.0048,0.0015,0.0015,0.0015,0,0,0.0157,0.0151,0.0166,0.0169,0.0166,0.0161,0.0165,0.0154,0.015,0.0153,0.0129,0.0116,0.0104,0.0091,0.0084,0.0101,0.007,0.0096,0.0133,0.0108,0.0111,0.0113,0.008,0.0078,0.0101,0.0101,0.0101,0,0.0163,0.0184,0.017,0.0188,0.0198,0.0174,0.0198,0.019,0.018,0.0184,0.0164,0.0142,0.0118,0.0124,0.0126,0.0111,0.0089,0.0119,0.0114,0.0116,0.0117,0.0082,0.008,0.0104,0.0103,0.0103,0.0103,0,0.0199,0.0216,0.0226,0.0246,0.0252,0.0268,0.0261,0.0261,0.025,0.0245,0.0241,0.0202,0.0193,0.0178,0.0157,0.0157,0.0136,0.012,0.0105,0.0123,0.0085,0.0082,0.0107,0.0107,0.0106,0.0105,0,0,0.0213,0.0247,0.0251,0.0278,0.0287,0.0302,0.0315,0.0329,0.0352,0.0319,0.0338,0.0301,0.0277,0.0266,0.0232,0.0205,0.0181,0.0171,0.0168,0.0144,0.0122,0.0098,0.0092,0.0167,0.0166,0.0166,0.0091,0,0.0248,0.0303,0.0307,0.0363,0.0394,0.0383,0.0407,0.0413,0.0408,0.0416,0.0365,0.037,0.0313,0.0311,0.0273,0.021,0.0177,0.0203,0.0105,0.0102,0.0083,0.0089,0.0166,0.0088,0.0087,0.0087,0.0086,0,0.0284,0.0322,0.0384,0.0439,0.0452,0.0479,0.052,0.0541,0.0539,0.0533,0.0514,0.0474,0.0432,0.0378,0.0275,0.0296,0.0216,0.0155,0.0151,0.0111,0.0072,0.0067,0.0079,0.008,0.0081,0.0081,0.0081,0,0.0315,0.0376,0.0433,0.0451,0.0505,0.0531,0.0561,0.058,0.0619,0.0614,0.0628,0.0565,0.0543,0.0435,0.0298,0.0292,0.0174,0.0149,0.0049,0.0046,0.0067,0.0065,0.0074,0.0074,0.0074,0.0074,0.0075,0,0.0355,0.0402,0.0456,0.049,0.0572,0.0587,0.0671,0.0682,0.0718,0.0771,0.0699,0.0707,0.0558,0.0466,0.0329,0.0179,0.0196,0.0058,0.0028,0.0088,0.0091,0.0063,0.0063,0.0072,0.0072,0.0073,0.0073,0,0.0383,0.0414,0.049,0.0559,0.0591,0.0652,0.0755,0.0815,0.083,0.0888,0.089,0.0824,0.0703,0.0533,0.0359,0.0234,0.0083,0.0022,0.0098,0.0073,-0.0039,-0.0035,-0.0089,-0.009,-0.0091,-0.0092,-0.0093,0,0.0402,0.0442,0.0544,0.0604,0.0642,0.074,0.0815,0.087,0.0934,0.0957,0.0982,0.089,0.0814,0.0557,0.037,0.0105,0.006,-0.0025,-0.0036,-0.003,-0.0054,-0.0048,-0.0044,-0.0095,-0.0095,-0.0096,-0.0096,0,0.0441,0.0475,0.0542,0.0663,0.0753,0.0865,0.0964,0.1016,0.1072,0.1083,0.1062,0.0921,0.0783,0.0569,0.0361,0.0169,0.0027,-0.0039,-0.0038,-0.0048,-0.0038,-0.0059,-0.0053,-0.01,-0.0099,-0.0099,-0.0099,0,0.0471,0.0523,0.0609,0.0719,0.0836,0.0946,0.1002,0.107,0.1129,0.1133,0.1127,0.0965,0.0881,0.0602,0.0413,0.0219,0.0163,0.0087,0.0081,0.0083,0.0144,0.0183,0.0169,0,0,0,0,0,0.0501,0.0561,0.066,0.078,0.0896,0.0966,0.1083,0.1128,0.117,0.1164,0.1147,0.101,0.0735,0.063,0.0433,0.0373,0.0118,0.0132,0.0026,-0.0123,-0.0118,-0.0078,0,0,0,0,0,0,0.052,0.0612,0.0659,0.0807,0.0895,0.103,0.1107,0.1141,0.114,0.1144,0.1013,0.0941,0.0687,0.0845,0.0423,0.0366,0.0265,0.0009,0.0004,-0.0125,-0.0121,-0.0117,-0.0075,0,0,0,0,0]}]]